User: anonymous
Location: Albany
(35.0000°S, 118.0000°E)
Time: 05:09:18
(UTC-04:00)
Language:

SJ-6B - Orbit

View from above orbital plane
View from above orbital plane
View from above satellite
View from above satellite

Ground track
Ground track

The orbit data is extracted from the following two-line orbital elements,

1 28415U 04035C   14243.74210466  .00002173  00000-0  16340-3 0  2742
2 28415 097.8025 248.8603 0054934 338.0149 021.8719 15.02480904545091
Epoch (UTC): 31 August 2014 17:48:37
Eccentricity: 0.0054934
inclination: 97.8025°
perigee height: 521 km
apogee height: 597 km
right ascension of ascending node: 248.8603°
argument of perigee: 338.0149°
revolutions per day: 15.02480904
mean anomaly at epoch: 21.8719°
orbit number at epoch: 54509

The dashed part of the orbit path shows where the satellite is in the earth's shadow,  

DLR